Location: Rieti
(42.4000°N, 12.8500°E)
Time: 06:35:20
(UTC+01:00)

ISS - Visible Passes

Search period start: 20 January 2019 00:00
Search period end: 30 January 2019 00:00
Orbit: 404 x 410 km, 51.6° (Epoch: 20 January)

Date Brightness Start Highest point End Pass type
(mag) Time Alt. Az. Time Alt. Az. Time Alt. Az.
20 Jan -0.7 19:34:43 10° SSW 19:34:52 11° SSW 19:34:52 11° SSW visible
21 Jan -2.2 18:43:55 10° S 18:46:04 23° SSE 18:46:04 23° SSE visible
22 Jan -1.6 17:53:48 10° SSE 17:55:28 13° SE 17:57:08 10° E visible
22 Jan -1.7 19:28:18 10° WSW 19:29:55 26° WSW 19:29:55 26° WSW visible
23 Jan -3.7 18:36:59 10° SW 18:40:14 59° SE 18:40:56 45° E visible
24 Jan -2.7 17:45:58 10° SSW 17:48:56 31° SE 17:51:52 10° ENE visible
24 Jan -2.1 19:22:19 10° W 19:24:36 31° WNW 19:24:36 31° WNW visible
25 Jan -3.5 18:30:41 10° WSW 18:33:56 59° NNW 18:35:27 28° NE visible
26 Jan -3.8 17:39:13 10° SW 17:42:30 79° SE 17:45:49 10° ENE visible
26 Jan -1.8 19:16:37 10° WNW 19:18:57 23° NNW 19:18:57 23° NNW visible
27 Jan -2.4 18:24:45 10° W 18:27:45 31° NNW 18:29:41 17° NNE visible
28 Jan -1.6 19:10:57 10° NW 19:13:05 18° NNW 19:13:05 18° NNW visible
29 Jan -1.9 18:19:01 10° WNW 18:21:37 21° NNW 18:23:44 13° NNE visible
